Location: The Saddle
(36.8333°N, 80.3417°W)
Time: 09:06:32
(UTC-05:00)

Vanguard 2 Rocket - Pass Details

Date: 13 December 2023
Orbit: 555 x 3309 km, 32.9° (Epoch: 02 March)

Event Time Altitude Azimuth Distance (km) Brightness Sun altitude
Rises 19:42:08 0° 283° (WNW) 7,158 12.5 -30.5°
Reaches altitude 10° 19:47:54 10° 273° (W) 6,248 12.0 -31.6°
Maximum altitude 20:03:09 28° 224° (SW) 4,643 10.7 -34.6°
Drops below altitude 10° 20:16:08 10° 173° (S) 5,240 10.7 -37.2°
Sets 20:20:30 0° 162° (SSE) 5,869 10.9 -38.1°
